[[{"header":{"parameterUnit":"m.s-1","parameterCategory":1,"la1":30.2991,"la2":30.254,"lo1":-89.0895,"lo2":-89.0444,"dy":0.0017,"dx":0.0017,"nx":28,"ny":28,"refTime":"2024-07-11T21:00:00:Z","depth":0,"parameterNumber":2,"parameterNumberName":"U-component_of_WINDS"},"data":[0,0,0,0,0,0,0,0,0,0,0,0,0,0,0,0,0,0,0,0,0,0,0,0,0,0,0,0,0,0,0,0,0,0,0,0,0,0,0,0,0,0,0,0,0,0,0,0,0,0,0,0,0,0,0,0,0,0,1.4949,1.495,0,1.5034,1.5035,1.5036,1.5034,1.5033,1.5032,1.5031,1.512,1.5123,1.5127,0,0,0,0,0,0,0,0,0,0,0,0,0,1.4786,1.4789,1.4949,1.495,1.4951,1.5033,1.5035,1.5036,1.5034,1.5033,1.5032,1.503,1.5119,1.5123,1.5127,0,0,0,0,0,0,0,0,0,0,0,0,0,1.4863,1.479,1.4948,1.496,1.4962,1.5033,1.5035,1.5036,1.5035,1.5033,1.5031,1.503,1.5118,1.5123,1.5128,1.5194,0,0,1.5143,1.5146,0,0,0,0,0,0,0,0,1.4858,1.4869,1.4957,1.4959,1.4961,1.5022,1.501,1.5089,1.5035,1.5007,1.5031,1.5029,1.5089,1.5096,1.5116,1.5198,1.5202,1.5144,1.5147,1.5149,1.5151,0,0,0,0,0,0,0,1.4853,1.4865,1.4982,1.4958,1.4961,1.4961,1.497,1.5025,1.5057,1.5009,1.501,1.5019,1.509,1.5111,1.5118,1.5203,1.5144,1.5148,1.5152,1.5154,1.5343,1.5345,0,0,0,0,0,0,1.4845,1.4861,1.498,1.4985,1.4905,1.4966,1.4976,1.5004,1.5056,1.5062,1.5021,1.5019,1.5103,1.5112,1.5121,1.5201,1.5149,1.5154,1.5157,1.5341,1.5344,1.5346,0,0,0,0,0,0,1.4842,1.4856,1.4976,1.4923,1.4938,1.497,1.5002,1.5007,1.5028,1.5065,1.507,1.5037,1.5102,1.5114,1.5175,1.5205,1.5156,1.5161,1.5339,1.5342,1.5345,1.5363,0,0,0,0,0,0,1.4837,1.4855,1.488,1.4923,1.4941,1.5029,1.5004,1.501,1.5037,1.5035,1.5081,1.5087,1.5102,1.5168,1.5181,1.5211,1.5165,1.5336,1.534,1.5344,1.536,1.5366,1.5371,0,0,0,0,0,1.4831,1.4882,1.4881,1.4895,1.4973,1.503,1.504,1.5055,1.5039,1.5065,1.5088,1.5086,1.5199,1.5174,1.5189,1.5221,1.5335,1.5339,1.5343,1.5357,1.5365,1.5371,0,0,0,0,0,0,1.4842,1.4888,1.4887,1.4954,1.4988,1.503,1.5063,1.5063,1.5103,1.51,1.5118,1.5129,1.519,1.5212,1.5183,1.5287,1.5265,1.5272,1.527,1.5278,1.5284,1.5277,1.5169,0,0,0,0,0,1.4852,1.4894,1.4932,1.4987,1.5004,1.5031,1.5056,1.5065,1.5101,1.5116,1.5144,1.518,1.5224,1.5252,1.5295,1.5363,1.5373,1.5392,1.5398,1.5403,1.5409,1.5446,1.5455,1.536,1.536,1.536,0,0,1.4873,1.4904,1.4929,1.499,1.5018,1.5061,1.5043,1.509,1.5122,1.5123,1.5182,1.5204,1.5246,1.5311,1.5341,1.5331,1.5437,1.5408,1.5411,1.5415,1.5451,1.546,1.5468,1.5363,1.5362,1.5362,0,0,1.4934,1.4962,1.501,1.5037,1.5079,1.5096,1.5107,1.5149,1.5163,1.5223,1.5224,1.5264,1.5339,1.5368,1.5393,1.5464,1.5463,1.5477,1.5507,1.5543,1.5551,1.5557,1.5582,1.5591,1.5483,1.5483,1.5483,0,1.4956,1.502,1.5035,1.5081,1.5108,1.511,1.5159,1.5185,1.5239,1.5257,1.5245,1.5339,1.5367,1.5439,1.5456,1.5476,1.549,1.5472,1.5548,1.5555,1.5562,1.5585,1.5594,1.5485,1.5485,1.5484,1.5484,0,1.5044,1.5089,1.5123,1.5174,1.5204,1.5252,1.5274,1.5303,1.5309,1.5327,1.5388,1.5421,1.547,1.5488,1.5495,1.556,1.5553,1.5544,1.5522,1.5572,1.5594,1.5603,1.5487,1.5486,1.5486,1.5486,0,0,1.5114,1.5171,1.5183,1.5206,1.5252,1.5287,1.5335,1.5381,1.5406,1.5443,1.5483,1.5547,1.5539,1.5567,1.5577,1.5608,1.5661,1.5596,1.5597,1.5606,1.5735,1.574,1.5751,1.5661,1.5663,1.5664,1.5731,0,1.5179,1.5263,1.5277,1.5351,1.5392,1.5394,1.5436,1.5468,1.5487,1.5525,1.5546,1.559,1.5577,1.5593,1.5625,1.5648,1.5687,1.5644,1.5699,1.5701,1.5688,1.5763,1.5769,1.583,1.574,1.5742,1.5743,0,1.5266,1.5304,1.5381,1.542,1.5438,1.5475,1.5519,1.5555,1.5593,1.5604,1.5634,1.5641,1.569,1.5667,1.5735,1.5705,1.5729,1.5744,1.5747,1.5752,1.5724,1.5769,1.585,1.5859,1.5757,1.5756,1.5755,0,1.5308,1.5379,1.5434,1.5453,1.5501,1.5526,1.5547,1.5583,1.561,1.5648,1.5666,1.571,1.5734,1.5768,1.5786,1.5767,1.5854,1.5831,1.5864,1.5864,1.5882,1.588,1.5967,1.5898,1.5898,1.5898,1.5898,0,1.5379,1.5426,1.5453,1.5487,1.554,1.5556,1.5608,1.5628,1.566,1.5698,1.5703,1.5739,1.5761,1.58,1.5814,1.5869,1.588,1.589,1.5893,1.5889,1.5888,1.5905,1.5901,1.59,1.59,1.5899,1.5899,0,1.5435,1.5455,1.5515,1.5555,1.5566,1.5603,1.5637,1.567,1.5688,1.5736,1.5748,1.5777,1.5823,1.5844,1.5902,1.5912,1.5973,1.5974,1.596,1.5961,1.5993,1.5989,1.6092,1.6106,1.6029,1.603,1.603,0,1.5478,1.5514,1.5557,1.5583,1.5604,1.5645,1.5672,1.5689,1.5717,1.5762,1.579,1.5836,1.5873,1.5947,1.5973,1.6017,1.6019,1.6052,1.6025,1.602,1.6018,1.6016,1.6019,1.6056,1.6057,1.6058,1.6058,0,1.5553,1.5561,1.5599,1.5641,1.5673,1.5707,1.5741,1.5761,1.5784,1.5815,1.5862,1.5891,1.5949,1.5995,1.604,1.6062,1.6064,1.6067,1.6076,1.6072,1.6062,1.6067,1.5973,1.6064,1.6063,1.6063,1.6063,1.6063,1.5604,1.5635,1.567,1.5713,1.5739,1.577,1.5803,1.5824,1.5863,1.5911,1.5919,1.5968,1.6004,1.6065,1.6089,1.6129,1.6121,1.6135,1.6139,1.6142,1.6143,1.6057,1.6137,1.6137,1.6137,1.6137,1.6137,0,1.5678,1.57,1.5739,1.5785,1.5818,1.5816,1.5853,1.5881,1.5924,1.5957,1.5994,1.6047,1.6091,1.612,1.6165,1.6191,1.6193,1.6202,1.62,1.6205,1.6148,1.6135,1.62,1.62,1.62,1.62,1.62,1.62,1.572,1.5773,1.5785,1.5852,1.5874,1.5921,1.5943,1.5971,1.5997,1.6056,1.6092,1.6111,1.6142,1.6189,1.623,1.6237,1.6253,1.6263,1.627,1.6216,1.6209,1.6203,1.619,1.6266,1.6266,1.6324,1.6324,1.6325]},{"header":{"parameterUnit":"m.s-1","parameterCategory":1,"la1":30.2991,"la2":30.254,"lo1":-89.0895,"lo2":-89.0444,"dy":0.0017,"dx":0.0017,"nx":28,"ny":28,"refTime":"2024-07-11T21:00:00:Z","depth":0,"parameterNumber":3,"parameterNumberName":"V-component_of_WINDS"},"data":[0,0,0,0,0,0,0,0,0,0,0,0,0,0,0,0,0,0,0,0,0,0,0,0,0,0,0,0,0,0,0,0,0,0,0,0,0,0,0,0,0,0,0,0,0,0,0,0,0,0,0,0,0,0,0,0,0,0,0.2493,0.2492,0,0.2464,0.2464,0.2463,0.2424,0.2424,0.2423,0.2422,0.2394,0.2394,0.2394,0,0,0,0,0,0,0,0,0,0,0,0,0,0.2514,0.2514,0.2493,0.2492,0.2492,0.2464,0.2464,0.2463,0.2424,0.2424,0.2423,0.2422,0.2394,0.2394,0.2394,0,0,0,0,0,0,0,0,0,0,0,0,0,0.2497,0.2514,0.2493,0.2469,0.2467,0.2464,0.2464,0.2463,0.2425,0.2424,0.2423,0.2422,0.2394,0.2394,0.2394,0.2412,0,0,0.2393,0.2393,0,0,0,0,0,0,0,0,0.2498,0.2496,0.2473,0.2471,0.2468,0.2447,0.2461,0.2446,0.2425,0.2441,0.2422,0.2421,0.2413,0.2411,0.2408,0.2411,0.241,0.2393,0.2393,0.2393,0.2393,0,0,0,0,0,0,0,0.2499,0.2497,0.2481,0.2473,0.247,0.246,0.2457,0.2458,0.2433,0.2439,0.2436,0.2433,0.2411,0.2408,0.2407,0.2409,0.2393,0.2393,0.2393,0.2393,0.2426,0.2427,0,0,0,0,0,0,0.2504,0.2499,0.2482,0.248,0.2481,0.2461,0.2457,0.2455,0.2432,0.2428,0.2434,0.2432,0.2409,0.2407,0.2405,0.2426,0.2393,0.2393,0.2393,0.2425,0.2426,0.2427,0,0,0,0,0,0,0.2505,0.2503,0.2483,0.2489,0.2486,0.2461,0.2459,0.2455,0.2451,0.2429,0.2424,0.2436,0.2408,0.2406,0.2411,0.2424,0.2393,0.2392,0.2424,0.2425,0.2427,0.2466,0,0,0,0,0,0,0.2505,0.2503,0.251,0.2489,0.2485,0.2489,0.246,0.2455,0.2451,0.2447,0.2429,0.2425,0.2407,0.2411,0.241,0.2423,0.2392,0.2422,0.2424,0.2426,0.2464,0.2469,0.2473,0,0,0,0,0,0.2506,0.2523,0.2511,0.2509,0.2493,0.249,0.2488,0.2467,0.2452,0.2459,0.2444,0.2425,0.2422,0.2412,0.2411,0.2424,0.2421,0.2424,0.2426,0.2461,0.2468,0.2473,0,0,0,0,0,0,0.2547,0.252,0.2506,0.2516,0.2506,0.2483,0.2491,0.2474,0.2468,0.2465,0.2439,0.2435,0.2443,0.2434,0.2423,0.244,0.2419,0.2421,0.2446,0.2452,0.2457,0.246,0.2392,0,0,0,0,0,0.2557,0.2556,0.2532,0.2544,0.2539,0.2516,0.2514,0.2498,0.2487,0.2482,0.2468,0.2457,0.2454,0.2452,0.2448,0.2461,0.2457,0.247,0.2474,0.2479,0.2481,0.2487,0.2493,0.2434,0.2434,0.2434,0,0,0.2578,0.2563,0.2564,0.2551,0.2541,0.2541,0.2513,0.2514,0.2514,0.2482,0.2486,0.2475,0.2462,0.2471,0.2474,0.2463,0.2496,0.2481,0.2485,0.2485,0.249,0.2496,0.2501,0.2436,0.2436,0.2435,0,0,0.2616,0.2604,0.2612,0.2602,0.2587,0.2572,0.2574,0.2554,0.2545,0.2548,0.2525,0.2524,0.2519,0.251,0.2505,0.2539,0.2521,0.2538,0.2564,0.257,0.2575,0.2579,0.2591,0.2596,0.254,0.254,0.254,0,0.2644,0.2643,0.2619,0.2621,0.2617,0.2587,0.2595,0.2587,0.2571,0.2569,0.2556,0.2549,0.2537,0.2544,0.2552,0.2549,0.2551,0.2541,0.2576,0.258,0.2583,0.2595,0.26,0.2542,0.2542,0.2542,0.2542,0,0.2678,0.2678,0.2686,0.2671,0.2667,0.2673,0.2649,0.2648,0.2632,0.2618,0.2622,0.2607,0.2599,0.2599,0.2584,0.2604,0.2597,0.2581,0.2559,0.2591,0.2602,0.2606,0.2545,0.2545,0.2544,0.2544,0,0,0.2743,0.2713,0.2717,0.271,0.269,0.269,0.2693,0.2685,0.2685,0.2675,0.2677,0.2673,0.2657,0.2652,0.2635,0.2641,0.2669,0.2623,0.2623,0.2633,0.2689,0.2703,0.2708,0.2656,0.2657,0.2658,0.2691,0,0.2778,0.2783,0.2761,0.2771,0.2771,0.2742,0.2745,0.2734,0.272,0.2718,0.2702,0.27,0.2679,0.2676,0.268,0.2664,0.268,0.2661,0.2659,0.2659,0.2665,0.2714,0.2728,0.276,0.2695,0.2695,0.2696,0,0.282,0.2812,0.2823,0.2802,0.2801,0.2804,0.2794,0.2792,0.2778,0.2768,0.2761,0.2742,0.2744,0.2722,0.2725,0.2713,0.2711,0.2703,0.2704,0.2704,0.2681,0.2716,0.277,0.2775,0.2702,0.2701,0.2701,0,0.2867,0.2858,0.2863,0.2858,0.2834,0.2837,0.2827,0.2812,0.2808,0.28,0.2797,0.2789,0.2785,0.2779,0.2758,0.2744,0.2763,0.274,0.2755,0.2756,0.2762,0.2762,0.2817,0.2759,0.2758,0.2758,0.2758,0,0.2909,0.2917,0.2884,0.2888,0.2895,0.2869,0.2878,0.2865,0.2852,0.2852,0.2826,0.2827,0.2799,0.2796,0.278,0.2785,0.2783,0.2775,0.2771,0.2778,0.2779,0.2777,0.2774,0.276,0.2759,0.2759,0.2759,0,0.2964,0.2942,0.2946,0.2922,0.2916,0.2923,0.2903,0.2905,0.2889,0.289,0.2889,0.2864,0.286,0.2838,0.2829,0.2818,0.2829,0.2819,0.2834,0.2831,0.2848,0.2847,0.2904,0.2911,0.2847,0.2848,0.2849,0,0.2993,0.2998,0.2975,0.2973,0.2964,0.2962,0.2957,0.2932,0.2928,0.2912,0.2916,0.291,0.2904,0.2898,0.288,0.2873,0.2864,0.2884,0.2862,0.2869,0.2865,0.2865,0.2866,0.2889,0.289,0.2891,0.2891,0,0.3047,0.3036,0.303,0.3021,0.3017,0.3008,0.2998,0.2998,0.297,0.2967,0.2962,0.2957,0.2947,0.2942,0.2931,0.2921,0.2902,0.2898,0.2901,0.2909,0.2918,0.2914,0.2847,0.2897,0.2897,0.2896,0.2896,0.2896,0.309,0.3093,0.3077,0.3072,0.3062,0.3053,0.3054,0.3037,0.3033,0.3023,0.3007,0.3005,0.299,0.2974,0.2965,0.2962,0.2951,0.2956,0.2957,0.2959,0.2963,0.2917,0.296,0.296,0.296,0.296,0.296,0,0.3144,0.3132,0.3127,0.3114,0.3109,0.309,0.3078,0.3076,0.3074,0.3062,0.3055,0.305,0.3044,0.3024,0.3016,0.3018,0.3009,0.3017,0.3017,0.3015,0.2973,0.2971,0.3024,0.3024,0.3024,0.3024,0.3024,0.3024,0.3171,0.3176,0.3162,0.3161,0.3149,0.3146,0.314,0.3132,0.3122,0.3117,0.3111,0.3098,0.3083,0.3073,0.3067,0.3061,0.3059,0.3071,0.3062,0.3024,0.3018,0.3012,0.301,0.307,0.307,0.3104,0.3104,0.3105]}]]